Location: *
(42.5628°N, 2.3633°E)
Time: 20:14:04
(UTC+00:00)

Aureole 1 Rocket - Pass Details

Date: 30 March 2020
Orbit: 379 x 1379 km, 73.9° (Epoch: 31 May)

Event Time Altitude Azimuth Distance (km) Brightness Sun altitude
Exits shadow 21:00:21 64° 152° (SSE) 1,335 4.3 -28.8°
Maximum altitude 21:01:21 72° 107° (ESE) 1,259 4.3 -29.0°
Drops below altitude 10° 21:08:07 10° 25° (NNE) 2,821 6.6 -29.9°
Sets 21:10:27 0° 23° (NNE) 3,640 7.2 -30.3°
